User: anonymous   Login
Location: Poughquag
(41.6090°N, 73.6820°W)
Time: 13:36:20
(UTC-04:00)
Language:

A-11 Canister half - Orbit

View from above orbital plane
View from above orbital plane
View from above satellite
View from above satellite

Ground track
Ground track

The orbit data is extracted from the following two-line orbital elements,

1 00053U 60009E   24149.43940327 -.00000001  00000-0  82851-3 0  9994
2 00053  47.2746 134.9716 0099169  18.3626 342.0705 12.17334705844090
Epoch (UTC): 28 May 2024 10:32:44
Eccentricity: 0.0099169
inclination: 47.2746°
perigee height: 1525 km
apogee height: 1683 km
right ascension of ascending node: 134.9716°
argument of perigee: 18.3626°
revolutions per day: 12.17334705
mean anomaly at epoch: 342.0705°
orbit number at epoch: 84409

The dashed part of the orbit path shows where the satellite is in the earth's shadow,  

DLR